Location: Luz Observatory
(34.5000°N, 117.2833°W)
Time: 22:47:32
(UTC-08:00)

Cosmos 1484 Rocket - Visible Passes

Search period start: 02 December 2016 00:00
Search period end: 12 December 2016 00:00
Orbit: 507 x 564 km, 97.3° (Epoch: 02 December)

Date Brightness Start Highest point End Pass type
(mag) Time Alt. Az. Time Alt. Az. Time Alt. Az.
02 Dec 3.4 17:26:08 10° SE 17:29:29 31° ENE 17:32:49 10° N visible
02 Dec 6.0 19:02:09 10° WSW 19:04:00 13° W 19:05:51 10° WNW visible
03 Dec 3.7 17:17:44 10° SE 17:20:49 24° ENE 17:23:52 10° NNE visible
03 Dec 5.6 18:52:43 10° SW 18:55:13 17° W 18:57:43 10° NW visible
04 Dec 4.0 17:09:27 10° ESE 17:12:08 19° ENE 17:14:50 10° NNE visible
04 Dec 5.2 18:43:30 10° SSW 18:46:27 22° W 18:49:24 10° NW visible
05 Dec 4.8 18:34:25 10° SSW 18:37:42 28° W 18:40:57 10° NW visible
06 Dec 4.6 06:11:42 10° NNE 06:15:15 37° E 06:18:49 10° SSE visible
06 Dec 4.3 18:25:27 10° SSW 18:28:56 36° W 18:32:25 10° NNW visible
07 Dec 5.1 06:03:10 10° NE 06:06:30 28° E 06:09:51 10° SSE visible
07 Dec 3.7 18:16:33 10° S 18:20:11 48° W 18:23:49 10° NNW visible
08 Dec 5.6 05:54:42 10° NE 05:57:44 22° E 06:00:47 10° SSE visible
08 Dec 3.0 18:07:44 10° S 18:11:27 65° W 18:15:09 10° NNW visible
09 Dec 5.9 05:46:21 10° NE 05:48:58 17° E 05:51:35 10° SE visible
09 Dec 2.6 17:58:59 10° SSE 18:02:43 87° WSW 18:06:27 10° NNW visible
10 Dec 6.1 05:38:12 10° ENE 05:40:11 14° E 05:42:11 10° SE visible
10 Dec 2.5 17:50:17 10° SSE 17:53:59 70° ENE 17:57:42 10° N visible
11 Dec 6.4 05:30:38 10° E 05:31:24 10° E 05:32:09 10° ESE visible
11 Dec 2.7 17:41:39 10° SSE 17:45:16 52° ENE 17:48:54 10° N visible
